Regional Weather Roundup
Issued by NWS Little Rock, AR

Home | Current Version | Previous Version | Graphics & Text | Print | Product List | Glossary On
Versions: 1 2 3 4 5 6 7 8 9 10 11 12 13 14 15 16 17 18 19 20 21 22 23 24 25 26 27 28 29 30 31 32 33 34 35 36 37 38 39 40 41 42 43 44 45 46 47 48 49 50
405
ASUS44 KLZK 270012
RWRLZK

WEATHER ROUNDUP FOR ARKANSAS
NATIONAL WEATHER SERVICE LITTLE ROCK AR
700 PM CDT SUN MAR 26 2017

NOTE: "FAIR" INDICATES FEW OR NO CLOUDS BELOW 12,000 FEET WITH NO
SIGNIFICANT WEATHER AND/OR OBSTRUCTIONS TO VISIBILITY.

ARZ001-003-010-029-270100-
NORTHWEST ARKANSAS

CITY           SKY/WX    TMP DP  RH WIND       PRES   REMARKS
FAYETTEVILLE   CLOUDY    67  50  54 SE9       29.81F
6HR MIN TEMP:  65; 6HR MAX TEMP:  70;

FORT SMITH     CLOUDY    71  52  50 E9        29.78F
6HR MIN TEMP:  67; 6HR MAX TEMP:  78;

HARRISON       CLOUDY    65  47  52 S8        29.88S
6HR MIN TEMP:  64; 6HR MAX TEMP:  71;

BENTONVILLE    CLOUDY    66  46  48 SE10      29.81F
6HR MIN TEMP:  63; 6HR MAX TEMP:  70;

ROGERS         CLOUDY    66  48  52 SE12      29.82F
6HR MIN TEMP:  62; 6HR MAX TEMP:  69;

SILOAM SPGS    CLOUDY    64  46  52 SE10      29.80F
6HR MIN TEMP:  63; 6HR MAX TEMP:  70;

HIGHFILL       CLOUDY    66  49  54 SE9       29.80F
6HR MIN TEMP:  62; 6HR MAX TEMP:  70;

SPRINGDALE     CLOUDY    66  48  52 E7        29.83F
$$

ARZ004-005-016-270100-
NORTH CENTRAL ARKANSAS

CITY           SKY/WX    TMP DP  RH WIND       PRES   REMARKS
BATESVILLE     PTCLDY    70  48  46 CALM      29.92S
6HR MIN TEMP:  66; 6HR MAX TEMP:  73;

FLIPPIN        MOCLDY    70  46  43 SE5       29.86S
6HR MIN TEMP:  64; 6HR MAX TEMP:  72;

MTN HOME       CLOUDY    67  48  50 S5        29.88S
6HR MIN TEMP:  62; 6HR MAX TEMP:  71;

$$

ARZ040-041-270100-
WEST CENTRAL ARKANSAS

CITY           SKY/WX    TMP DP  RH WIND       PRES   REMARKS
MENA           PTCLDY    75  50  41 SE6       29.85S
MOUNT IDA      CLOUDY    74  49  41 SE5       29.84S
6HR MIN TEMP:  71; 6HR MAX TEMP:  78;

$$

ARZ009-017-025-026-028-270100-
NORTHEAST ARKANSAS

CITY           SKY/WX    TMP DP  RH WIND       PRES   REMARKS
CORNING        FAIR      66  55  68 S9        29.94R
JONESBORO      CLOUDY    67  54  63 S6        29.93R
6HR MIN TEMP:  65; 6HR MAX TEMP:  70;

NEWPORT        CLOUDY    66  57  72 S8        29.92R
6HR MIN TEMP:  66; 6HR MAX TEMP:  72;

WALNUT RIDGE   PTCLDY    66  54  63 S7        29.93R
6HR MIN TEMP:  64; 6HR MAX TEMP:  72;

BLYTHEVILLE    PTCLDY    67  55  65 SW3       29.95R
6HR MIN TEMP:  65; 6HR MAX TEMP:  70;

$$

ARZ022-023-033-042-044-270100-
CENTRAL ARKANSAS

CITY           SKY/WX    TMP DP  RH WIND       PRES   REMARKS
LITTLE ROCK    MOCLDY    72  54  53 SE12      29.89R
6HR MIN TEMP:  70; 6HR MAX TEMP:  77;

N LITTLE ROCK    N/A     72  55  54 E7        29.90R
6HR MIN TEMP:  68; 6HR MAX TEMP:  77;

JACKSONVILLE   CLOUDY    72  55  53 E6        29.89R
6HR MIN TEMP:  69; 6HR MAX TEMP:  77;

CONWAY           N/A     72  57  60 E5        29.87R
SEARCY         CLOUDY    69  56  62 SE6       29.92R
6HR MIN TEMP:  68; 6HR MAX TEMP:  75;

HOT SPRINGS    PTCLDY    76  50  40 E3        29.87S
6HR MIN TEMP:  71; 6HR MAX TEMP:  79;

RUSSELLVILLE   PTCLDY    72  52  49 E6        29.86S
6HR MIN TEMP:  66; 6HR MAX TEMP:  75;

CLINTON        FAIR      70  54  56 CALM      29.89F
$$

ARZ036-270100-
EAST ARKANSAS

CITY           SKY/WX    TMP DP  RH WIND       PRES   REMARKS
WEST MEMPHIS   CLEAR     71  53  52 CALM      29.92S
6HR MIN TEMP:  68; 6HR MAX TEMP:  73;

$$

ARZ050-053-066-070-073-270100-
SOUTHWEST ARKANSAS

CITY           SKY/WX    TMP DP  RH WIND       PRES   REMARKS
CAMDEN         CLEAR     75  46  35 SE6       29.85S
TEXARKANA      PTCLDY    77  58  51 SE7       29.82S
6HR MIN TEMP:  74; 6HR MAX TEMP:  80;

EL DORADO      PTCLDY    78  51  38 SE6       29.86S
6HR MIN TEMP:  75; 6HR MAX TEMP:  83;

DE QUEEN       PTCLDY    77  53  43 SE8       29.79S
6HR MIN TEMP:  73; 6HR MAX TEMP:  80;

$$

ARZ056-057-069-270100-
SOUTHEAST ARKANSAS

CITY           SKY/WX    TMP DP  RH WIND       PRES   REMARKS
PINE BLUFF     CLEAR     73  56  54 SE5       29.88F
6HR MIN TEMP:  72; 6HR MAX TEMP:  80;

STUTTGART      PTCLDY    72  54  53 SE6       29.91S
6HR MIN TEMP:  70; 6HR MAX TEMP:  75;

MONTICELLO       N/A     77  53  43 SE7       29.89S
6HR MIN TEMP:  75; 6HR MAX TEMP:  81;


$$






USA.gov is the U.S. government's official web portal to all federal, state and local government web resources and services.